Time,TemperatureF,DewpointF,PressureIn,WindDirection,WindDirectionDegrees,WindSpeedMPH,WindSpeedGustMPH,Humidity,HourlyPrecipIn,Conditions,Clouds,dailyrainin,SoftwareType,DateUTC
2013-05-09 06:33:00,72.0,65.0,30.02,WNW,287,1.0,7.0,79,0.00,,,0.00,,2013-05-09 16:33:00,
2013-05-09 06:42:00,72.0,65.0,30.03,WNW,289,0.0,1.0,78,0.00,,,0.00,,2013-05-09 16:42:00,
2013-05-09 06:53:00,72.0,65.0,30.03,WNW,289,0.0,1.0,78,0.00,,,0.00,,2013-05-09 16:53:00,
2013-05-09 07:02:00,72.0,64.0,30.03,West,281,0.0,0.0,77,0.00,,,0.00,,2013-05-09 17:02:00,
2013-05-09 07:12:00,72.0,64.0,30.03,West,281,0.0,0.0,77,0.00,,,0.00,,2013-05-09 17:12:00,
2013-05-09 07:21:00,72.0,64.0,30.04,West,264,0.0,1.0,77,0.00,,,0.00,,2013-05-09 17:21:00,
2013-05-09 07:32:00,73.0,65.0,30.04,NNW,329,0.0,2.0,75,0.00,,,0.00,,2013-05-09 17:32:00,
2013-05-09 07:41:00,73.0,65.0,30.04,NNW,329,0.0,2.0,75,0.00,,,0.00,,2013-05-09 17:41:00,
2013-05-09 07:55:00,74.0,65.0,30.04,NNW,327,2.0,3.0,74,0.00,,,0.00,,2013-05-09 17:55:00,
2013-05-09 08:01:00,74.0,65.0,30.05,NNW,327,0.0,2.0,74,0.00,,,0.00,,2013-05-09 18:01:00,
2013-05-09 08:12:00,74.0,65.0,30.05,NNW,327,0.0,2.0,74,0.00,,,0.00,,2013-05-09 18:12:00,
2013-05-09 08:21:00,75.0,67.0,30.05,SSE,164,2.0,4.0,75,0.00,,,0.00,,2013-05-09 18:21:00,
2013-05-09 08:31:00,75.0,65.0,30.05,SSE,148,2.0,6.0,72,0.00,,,0.00,,2013-05-09 18:31:00,
2013-05-09 08:41:00,75.0,65.0,30.05,SSE,148,2.0,6.0,72,0.00,,,0.00,,2013-05-09 18:41:00,
2013-05-09 08:52:00,75.0,65.0,30.05,WSW,253,1.0,3.0,71,0.00,,,0.00,,2013-05-09 18:52:00,
2013-05-09 09:01:00,76.0,66.0,30.06,SW,226,2.0,7.0,71,0.00,,,0.00,,2013-05-09 19:01:00,
2013-05-09 09:11:00,76.0,66.0,30.06,SW,226,2.0,7.0,71,0.00,,,0.00,,2013-05-09 19:11:00,
2013-05-09 09:21:00,76.0,66.0,30.05,WSW,249,2.0,5.0,71,0.00,,,0.00,,2013-05-09 19:21:00,
2013-05-09 09:31:00,77.0,67.0,30.05,SE,144,5.0,10.0,72,0.00,,,0.00,,2013-05-09 19:31:00,
2013-05-09 09:41:00,77.0,67.0,30.06,SE,132,4.0,9.0,72,0.00,,,0.00,,2013-05-09 19:41:00,
2013-05-09 09:52:00,77.0,67.0,30.06,SE,132,4.0,9.0,72,0.00,,,0.00,,2013-05-09 19:52:00,
2013-05-09 10:01:00,77.0,67.0,30.06,SW,223,2.0,7.0,72,0.00,,,0.00,,2013-05-09 20:01:00,
2013-05-09 10:11:00,77.0,67.0,30.06,SW,223,2.0,7.0,72,0.00,,,0.00,,2013-05-09 20:11:00,
2013-05-09 10:21:00,77.0,67.0,30.05,SSE,147,6.0,12.0,72,0.00,,,0.00,,2013-05-09 20:21:00,
2013-05-09 10:32:00,78.0,68.0,30.06,ESE,119,4.0,10.0,72,0.00,,,0.00,,2013-05-09 20:32:00,
2013-05-09 10:42:00,78.0,69.0,30.05,SE,138,5.0,9.0,73,0.00,,,0.00,,2013-05-09 20:42:00,
2013-05-09 10:52:00,78.0,69.0,30.05,SE,138,5.0,9.0,73,0.00,,,0.00,,2013-05-09 20:52:00,
2013-05-09 11:01:00,77.0,67.0,30.06,SSE,165,4.0,10.0,72,0.00,,,0.00,,2013-05-09 21:01:00,
2013-05-09 11:11:00,77.0,67.0,30.06,SSE,165,4.0,10.0,72,0.00,,,0.00,,2013-05-09 21:11:00,
2013-05-09 11:22:00,78.0,68.0,30.06,South,176,5.0,10.0,71,0.00,,,0.00,,2013-05-09 21:22:00,
2013-05-09 11:32:00,78.0,67.0,30.06,South,172,3.0,9.0,69,0.00,,,0.00,,2013-05-09 21:32:00,
2013-05-09 11:42:00,78.0,67.0,30.05,SE,129,5.0,12.0,70,0.00,,,0.00,,2013-05-09 21:42:00,
2013-05-09 11:53:00,78.0,67.0,30.05,SE,129,5.0,12.0,70,0.00,,,0.00,,2013-05-09 21:53:00,
2013-05-09 12:02:00,78.0,68.0,30.05,ESE,117,5.0,9.0,71,0.00,,,0.00,,2013-05-09 22:02:00,
2013-05-09 12:12:00,78.0,68.0,30.05,SE,136,9.0,15.0,72,0.00,,,0.00,,2013-05-09 22:12:00,
2013-05-09 12:22:00,78.0,68.0,30.05,SE,136,9.0,15.0,72,0.00,,,0.00,,2013-05-09 22:22:00,
2013-05-09 12:32:00,78.0,67.0,30.05,SSW,196,7.0,11.0,70,0.00,,,0.00,,2013-05-09 22:32:00,
2013-05-09 12:42:00,78.0,68.0,30.04,SSE,167,3.0,11.0,72,0.00,,,0.00,,2013-05-09 22:42:00,
2013-05-09 12:52:00,78.0,68.0,30.04,SSE,167,3.0,11.0,72,0.00,,,0.00,,2013-05-09 22:52:00,
2013-05-09 13:02:00,78.0,68.0,30.04,SSW,199,3.0,8.0,71,0.00,,,0.00,,2013-05-09 23:02:00,
2013-05-09 13:11:00,77.0,67.0,30.03,South,180,2.0,9.0,72,0.00,,,0.00,,2013-05-09 23:11:00,
2013-05-09 13:21:00,77.0,67.0,30.03,South,180,2.0,9.0,72,0.00,,,0.00,,2013-05-09 23:21:00,
2013-05-09 13:32:00,78.0,68.0,30.03,SW,215,2.0,8.0,72,0.00,,,0.00,,2013-05-09 23:32:00,
2013-05-09 13:42:00,77.0,68.0,30.02,SE,141,5.0,10.0,73,0.00,,,0.00,,2013-05-09 23:42:00,
2013-05-09 13:52:00,77.0,68.0,30.02,SE,141,5.0,10.0,73,0.00,,,0.00,,2013-05-09 23:52:00,
2013-05-09 14:01:00,77.0,68.0,30.02,SSE,157,4.0,12.0,74,0.00,,,0.00,,2013-05-10 00:01:00,
2013-05-09 14:11:00,77.0,68.0,30.01,SSE,148,1.0,8.0,74,0.00,,,0.00,,2013-05-10 00:11:00,
2013-05-09 14:21:00,77.0,68.0,30.01,SSE,148,1.0,8.0,74,0.00,,,0.00,,2013-05-10 00:21:00,
2013-05-09 14:31:00,76.0,67.0,30.01,SE,138,4.0,9.0,74,0.00,,,0.00,,2013-05-10 00:31:00,
2013-05-09 14:42:00,76.0,67.0,30.00,SE,130,1.0,7.0,74,0.00,,,0.00,,2013-05-10 00:42:00,
2013-05-09 14:52:00,76.0,67.0,30.00,SE,130,1.0,7.0,74,0.00,,,0.00,,2013-05-10 00:52:00,
2013-05-09 15:01:00,76.0,67.0,30.00,SE,130,1.0,7.0,74,0.00,,,0.00,,2013-05-10 01:01:00,
2013-05-09 15:11:00,77.0,68.0,30.00,SSE,153,2.0,4.0,74,0.00,,,0.00,,2013-05-10 01:11:00,
2013-05-09 15:21:00,77.0,68.0,30.00,SSE,153,2.0,4.0,74,0.00,,,0.00,,2013-05-10 01:21:00,
2013-05-09 15:31:00,76.0,67.0,29.99,SSE,153,3.0,6.0,75,0.00,,,0.00,,2013-05-10 01:31:00,
2013-05-09 15:42:00,76.0,67.0,29.99,SSE,152,3.0,6.0,75,0.00,,,0.00,,2013-05-10 01:42:00,
2013-05-09 15:52:00,76.0,67.0,29.99,SSE,152,3.0,6.0,75,0.00,,,0.00,,2013-05-10 01:52:00,
2013-05-09 16:01:00,76.0,68.0,29.99,SSW,194,0.0,4.0,76,0.00,,,0.00,,2013-05-10 02:01:00,
2013-05-09 16:11:00,76.0,68.0,29.98,SE,125,4.0,6.0,76,0.00,,,0.00,,2013-05-10 02:11:00,
2013-05-09 16:21:00,76.0,68.0,29.98,SE,125,4.0,6.0,76,0.00,,,0.00,,2013-05-10 02:21:00,
2013-05-09 16:31:00,75.0,67.0,29.98,ESE,123,0.0,4.0,77,0.00,,,0.00,,2013-05-10 02:31:00,
2013-05-09 16:42:00,75.0,67.0,29.98,SSE,157,2.0,5.0,77,0.00,,,0.00,,2013-05-10 02:42:00,
2013-05-09 16:52:00,75.0,67.0,29.98,SSE,157,2.0,5.0,77,0.00,,,0.00,,2013-05-10 02:52:00,
2013-05-09 17:01:00,75.0,67.0,29.98,SSE,157,0.0,5.0,77,0.00,,,0.00,,2013-05-10 03:01:00,
2013-05-09 17:11:00,75.0,67.0,29.98,SSE,157,0.0,5.0,77,0.00,,,0.00,,2013-05-10 03:11:00,
2013-05-09 17:21:00,75.0,67.0,29.99,SE,128,3.0,9.0,77,0.00,,,0.00,,2013-05-10 03:21:00,
2013-05-09 17:32:00,75.0,67.0,29.99,SSW,206,1.0,5.0,76,0.00,,,0.00,,2013-05-10 03:32:00,
2013-05-09 17:42:00,75.0,67.0,29.99,SSW,206,1.0,5.0,76,0.00,,,0.00,,2013-05-10 03:42:00,
2013-05-09 17:53:00,75.0,67.0,29.99,SSW,206,1.0,4.0,76,0.00,,,0.00,,2013-05-10 03:53:00,
2013-05-09 18:02:00,75.0,67.0,30.00,East,89,1.0,6.0,77,0.00,,,0.00,,2013-05-10 04:02:00,
2013-05-09 18:12:00,75.0,67.0,30.00,East,89,1.0,6.0,77,0.00,,,0.00,,2013-05-10 04:12:00,
2013-05-09 18:22:00,75.0,67.0,30.01,East,88,0.0,3.0,76,0.00,,,0.00,,2013-05-10 04:22:00,
2013-05-09 18:33:00,74.0,67.0,30.01,NNE,30,5.0,8.0,78,0.00,,,0.00,,2013-05-10 04:33:00,
2013-05-09 18:42:00,74.0,67.0,30.01,NE,46,1.0,6.0,80,0.00,,,0.00,,2013-05-10 04:42:00,
2013-05-09 18:52:00,74.0,67.0,30.01,NE,46,1.0,6.0,80,0.00,,,0.00,,2013-05-10 04:52:00,
2013-05-09 19:02:00,73.0,67.0,30.02,NE,34,3.0,7.0,81,0.00,,,0.00,,2013-05-10 05:02:00,
2013-05-09 19:12:00,73.0,68.0,30.03,ENE,60,3.0,7.0,83,0.00,,,0.00,,2013-05-10 05:12:00,
2013-05-09 19:21:00,73.0,68.0,30.03,ENE,60,3.0,7.0,83,0.00,,,0.00,,2013-05-10 05:21:00,
2013-05-09 19:32:00,73.0,68.0,30.03,NE,55,4.0,9.0,83,0.00,,,0.00,,2013-05-10 05:32:00,
2013-05-09 19:42:00,73.0,68.0,30.04,NE,53,0.0,8.0,83,0.00,,,0.00,,2013-05-10 05:42:00,
2013-05-09 19:52:00,73.0,68.0,30.04,NE,53,0.0,8.0,83,0.00,,,0.00,,2013-05-10 05:52:00,
2013-05-09 20:01:00,72.0,67.0,30.04,ENE,61,5.0,10.0,83,0.00,,,0.00,,2013-05-10 06:01:00,
2013-05-09 20:11:00,72.0,67.0,30.05,NNE,28,6.0,11.0,84,0.00,,,0.00,,2013-05-10 06:11:00,
2013-05-09 20:21:00,72.0,67.0,30.05,NNE,28,6.0,11.0,84,0.00,,,0.00,,2013-05-10 06:21:00,
2013-05-09 20:32:00,72.0,67.0,30.06,NE,38,4.0,10.0,84,0.00,,,0.00,,2013-05-10 06:32:00,
2013-05-09 20:41:00,72.0,67.0,30.06,NE,38,4.0,10.0,84,0.00,,,0.00,,2013-05-10 06:41:00,
2013-05-09 20:52:00,72.0,67.0,30.07,NE,52,5.0,10.0,84,0.00,,,0.00,,2013-05-10 06:52:00,
2013-05-09 21:01:00,72.0,67.0,30.08,ENE,74,5.0,14.0,84,0.00,,,0.00,,2013-05-10 07:01:00,
2013-05-09 21:11:00,72.0,67.0,30.08,ENE,74,5.0,14.0,84,0.00,,,0.00,,2013-05-10 07:11:00,
2013-05-09 21:21:00,72.0,67.0,30.09,NNE,33,9.0,13.0,85,0.00,,,0.00,,2013-05-10 07:21:00,
2013-05-09 21:31:00,71.0,66.0,30.09,NNE,19,7.0,12.0,84,0.00,,,0.00,,2013-05-10 07:31:00,
2013-05-09 21:41:00,72.0,67.0,30.09,NNE,13,7.0,13.0,84,0.00,,,0.00,,2013-05-10 07:41:00,
2013-05-09 21:52:00,72.0,67.0,30.09,NNE,13,7.0,13.0,84,0.00,,,0.00,,2013-05-10 07:52:00,
2013-05-09 22:02:00,72.0,67.0,30.10,ENE,76,4.0,12.0,84,0.00,,,0.00,,2013-05-10 08:02:00,
2013-05-09 22:11:00,72.0,67.0,30.10,ENE,76,4.0,12.0,84,0.00,,,0.00,,2013-05-10 08:11:00,
2013-05-09 22:21:00,72.0,67.0,30.10,ENE,76,4.0,12.0,84,0.00,,,0.00,,2013-05-10 08:21:00,
2013-05-09 22:32:00,72.0,67.0,30.10,ENE,76,4.0,12.0,84,0.00,,,0.00,,2013-05-10 08:32:00,
2013-05-09 22:41:00,72.0,67.0,30.10,ENE,76,4.0,12.0,84,0.00,,,0.00,,2013-05-10 08:41:00,